Theta_e
324 324 323 323 322 322 322 323 323 323 324 324 325 324 323 323 324 324 324 324 324 323 324 325 323 323 324 322 323 323 322 323 325 326 327 330 331 334 338 339 338 338 338 338 339 339 339 338 337 338 338 338 337 337 337 337 337 337 336 335 334 334 334 334 332 330 330 331 333 333 333 334 336 338 337 336 336 337 337 337 337 337 336 335 335
322 322 322 322 322 322 322 323 323 323 323 323 323 323 322 322 323 323 323 324 325 324 325 324 324 325 325 325 325 324 324 324 323 323 325 328 329 331 334 336 337 338 338 338 338 339 338 338 338 337 337 337 337 337 337 338 337 337 337 336 335 335 335 334 332 331 330 330 333 335 335 334 335 336 337 337 337 337 337 337 338 337 337 336 336
322 321 321 320 320 321 321 322 322 322 322 322 322 322 322 322 322 322 323 324 324 325 325 324 324 325 326 326 326 326 326 325 324 323 324 325 326 327 330 333 335 336 336 337 338 338 338 338 338 337 336 337 338 337 338 338 338 337 337 335 333 333 334 334 333 333 332 331 332 335 337 338 337 336 335 335 336 337 337 337 338 338 337 336 336
322 321 321 320 319 320 320 321 320 320 321 320 321 321 321 321 320 320 322 322 324 324 323 323 324 324 324 325 325 325 325 326 326 324 325 326 326 327 328 331 332 334 335 336 336 337 337 337 338 338 337 337 338 338 337 337 337 337 336 335 334 332 332 333 333 332 332 333 334 335 335 336 337 337 336 335 335 336 337 336 337 337 337 337 337
322 321 321 320 319 320 320 319 319 320 320 320 320 320 320 319 319 318 319 320 322 323 322 322 322 322 322 323 323 324 324 325 325 326 327 328 328 328 329 330 331 332 334 334 335 336 336 336 336 337 337 337 337 337 337 337 336 336 336 336 335 333 332 332 332 332 332 332 333 335 336 337 338 336 336 338 336 336 336 336 336 336 337 338 338
321 320 320 320 319 319 319 319 319 319 320 320 320 320 319 318 318 318 318 319 322 322 321 321 321 320 321 321 322 323 323 324 324 325 326 326 327 327 327 328 329 330 331 331 332 334 335 335 335 336 336 336 336 336 337 336 336 336 336 336 335 334 332 331 332 332 332 332 331 333 334 336 340 338 338 341 339 337 336 335 335 335 336 337 338
320 320 319 319 320 319 319 319 318 319 320 320 319 319 319 318 318 318 318 319 321 321 320 320 320 320 320 321 322 322 323 323 323 323 324 324 325 325 326 327 328 329 329 329 330 331 333 334 334 335 335 335 335 336 336 336 336 335 335 336 335 334 332 331 331 332 333 333 332 333 332 333 337 339 340 340 339 337 335 335 336 336 337 337 338
320 320 319 319 319 319 319 319 319 319 319 319 319 319 319 318 318 318 317 318 320 320 320 320 319 320 321 322 323 324 324 324 323 323 323 323 324 325 326 326 327 327 328 328 328 329 331 333 334 335 334 335 335 336 336 336 336 335 335 336 335 333 332 331 331 332 333 334 333 334 335 335 336 338 339 337 335 335 334 335 334 333 335 337 338
320 319 319 319 319 319 318 319 319 319 319 319 319 319 319 318 317 317 317 317 319 320 319 319 319 321 322 323 323 324 324 324 324 324 324 325 325 325 325 326 326 326 327 327 328 329 330 332 335 335 334 334 334 335 335 336 336 336 335 335 334 333 332 331 332 332 332 332 334 335 336 335 335 336 336 334 333 334 335 336 334 332 333 335 336
319 319 319 319 319 319 318 319 319 319 319 318 318 318 318 317 317 317 316 317 318 319 319 319 320 321 322 322 323 323 324 324 324 325 325 325 325 326 325 325 325 326 326 327 327 328 329 331 334 335 334 333 334 334 334 335 336 336 336 335 335 334 333 332 331 331 330 330 333 335 336 335 334 335 335 334 334 334 334 335 334 333 334 334 334
318 318 319 319 319 319 318 318 318 319 319 318 318 317 317 316 316 316 316 316 317 318 318 319 320 321 322 322 322 323 323 324 324 324 325 326 326 327 326 325 325 325 326 327 327 328 329 331 332 332 333 333 334 333 333 334 334 335 336 336 335 335 334 333 332 331 331 330 330 332 334 334 334 334 334 333 333 334 335 335 334 333 334 334 333
318 318 319 320 320 319 319 318 318 318 318 318 318 317 317 316 316 315 315 315 316 317 317 318 320 320 321 321 322 323 322 323 323 324 325 326 326 326 327 327 326 326 326 327 327 328 329 331 330 329 330 332 333 333 332 333 334 335 335 335 335 335 335 335 334 333 331 330 330 331 333 334 333 333 333 332 333 334 335 336 334 333 334 334 333
319 319 320 320 320 320 318 318 318 318 318 317 317 317 317 317 316 315 315 315 316 316 317 318 319 320 320 321 322 322 322 322 323 324 324 325 326 325 326 327 327 327 327 328 328 329 329 330 329 329 329 329 331 332 332 332 333 333 334 334 335 335 335 335 335 334 333 332 332 333 334 335 334 333 332 332 333 333 334 335 333 333 334 334 333
322 321 321 320 320 319 319 318 318 318 318 317 317 317 317 317 316 315 315 315 316 316 316 317 319 320 320 320 321 322 322 322 323 324 324 325 325 324 325 326 326 327 327 328 329 329 329 329 329 329 329 329 329 329 330 330 329 330 331 332 333 334 335 335 335 335 334 333 334 334 335 335 335 334 333 332 333 333 334 335 334 333 333 332 332
322 320 319 319 319 319 319 319 318 318 317 317 317 316 316 317 316 314 314 314 315 316 315 316 318 319 320 320 321 322 322 322 322 323 324 324 324 324 325 325 325 326 326 326 328 328 329 329 328 327 328 329 329 329 329 328 328 330 330 329 331 332 333 334 334 335 335 334 335 335 335 335 335 335 334 334 334 334 334 334 335 335 334 333 333
320 319 319 319 318 318 319 318 317 318 317 316 317 316 316 317 315 314 314 314 315 316 315 315 317 319 320 320 320 321 321 322 321 322 323 324 324 324 325 324 325 326 325 325 327 327 327 328 328 328 328 329 329 330 329 329 329 330 330 330 331 331 330 330 331 334 334 334 335 334 334 335 335 335 335 335 335 335 335 334 334 334 335 335 335
319 319 319 319 318 318 318 317 317 317 317 316 316 316 315 316 314 313 313 313 315 316 314 315 317 318 319 319 320 320 320 321 321 322 322 323 324 324 324 324 324 324 325 325 326 326 326 327 328 329 328 328 329 329 329 328 329 329 329 330 331 330 329 328 329 332 333 333 334 334 334 334 334 334 334 334 334 335 334 333 332 332 333 335 335
320 319 319 319 318 318 318 317 316 316 316 316 315 315 314 315 313 312 312 313 314 316 315 315 316 317 318 319 319 319 320 320 321 321 322 322 323 323 323 324 324 324 324 325 326 326 327 328 328 328 328 328 328 328 328 329 329 329 328 328 329 330 329 329 329 330 331 332 332 332 333 334 334 334 334 334 334 334 333 332 332 333 334 334 334
320 319 319 319 318 318 318 317 316 315 316 315 314 314 313 313 312 311 312 312 313 315 315 315 316 316 317 318 318 319 319 320 320 321 322 322 323 323 323 323 323 324 325 325 325 326 326 327 327 327 328 327 327 327 327 329 329 328 328 328 329 329 329 330 330 330 330 331 330 329 330 332 332 332 332 333 333 332 331 330 332 333 332 332 333
321 318 319 319 318 318 318 318 316 315 315 314 313 313 312 312 311 310 312 312 312 314 315 315 315 316 316 317 317 318 319 319 320 320 321 322 322 322 322 322 323 324 325 325 324 325 326 326 326 326 326 326 325 325 325 326 327 328 328 328 329 329 329 329 330 329 329 329 329 329 330 331 331 331 331 332 332 332 331 330 332 332 330 331 332
321 319 318 319 318 318 317 317 316 315 314 314 313 312 312 312 310 310 312 311 311 314 315 314 315 315 316 316 317 318 318 319 319 320 320 321 321 322 322 322 322 323 324 324 323 324 324 324 323 323 323 323 323 323 323 323 324 325 327 328 328 329 329 329 329 329 328 328 329 330 330 331 331 331 331 330 330 330 331 331 331 331 330 330 332
322 320 319 319 319 318 317 317 316 315 314 314 313 312 312 312 310 310 312 312 312 313 314 315 315 315 315 316 317 317 318 318 319 319 320 320 321 321 321 322 322 322 323 322 322 322 321 321 319 319 318 319 319 319 320 320 320 321 323 325 327 328 329 329 329 329 328 328 328 328 329 329 329 330 330 329 328 329 329 329 329 330 330 329 330
321 320 319 318 318 318 317 316 315 315 314 314 314 312 312 311 310 310 311 312 312 313 314 314 314 315 315 316 316 317 317 318 318 319 319 319 320 320 321 321 322 322 321 321 320 319 318 317 316 315 314 315 317 317 318 318 317 318 319 320 323 326 328 329 329 329 328 327 327 327 327 328 328 328 329 328 328 328 327 327 327 329 330 330 329
320 320 319 318 318 317 316 315 315 314 314 314 313 312 311 311 311 310 311 312 312 312 314 314 314 315 315 315 316 317 317 317 318 318 318 318 318 319 320 321 321 320 319 318 318 316 315 313 312 311 310 310 313 315 316 316 316 316 317 318 320 323 326 327 327 327 327 328 327 327 327 327 327 326 325 325 326 326 327 328 328 329 330 330 330
320 320 319 318 317 317 315 315 315 314 313 313 312 311 311 311 311 311 312 312 312 312 313 313 314 314 314 315 315 316 316 317 317 318 317 317 318 318 319 319 320 319 318 317 316 314 312 309 307 307 306 306 308 310 311 312 313 314 315 317 318 321 323 325 325 326 327 328 328 326 325 324 324 323 322 321 321 322 324 326 327 328 329 330 330
320 320 320 320 318 316 316 315 314 313 312 312 311 310 310 310 310 311 311 311 311 312 313 313 314 314 314 314 315 315 316 316 317 317 316 316 317 317 317 318 318 318 318 317 315 313 311 308 305 303 303 303 304 306 307 308 308 310 312 315 318 319 321 323 323 324 325 326 326 325 323 321 320 320 319 319 319 320 320 321 322 324 326 328 329
320 320 320 320 319 317 316 316 315 313 312 312 310 309 309 309 310 311 311 311 311 311 312 313 314 314 313 314 314 314 315 316 316 316 316 316 316 316 316 317 317 317 317 317 316 313 311 309 307 304 302 302 302 303 304 305 306 307 308 313 317 318 319 321 321 321 321 323 324 323 319 317 316 315 314 314 315 316 317 317 318 320 322 324 325
319 319 319 319 320 319 318 317 316 314 312 312 310 309 309 309 310 310 310 311 312 311 311 312 314 314 313 313 314 314 314 315 315 315 315 315 315 315 315 315 315 315 315 315 315 313 312 310 309 306 303 301 301 302 302 304 305 305 307 313 315 316 317 318 317 317 318 320 322 320 316 313 312 310 309 309 308 309 310 312 314 316 318 319 321
317 318 319 319 320 320 319 318 317 315 313 312 310 309 310 310 310 310 310 311 311 310 311 312 313 313 313 313 313 313 314 314 314 314 314 314 314 314 314 314 314 314 314 314 314 313 313 311 309 308 304 301 300 300 300 302 303 304 308 312 314 314 315 315 314 314 315 317 319 318 315 312 310 310 308 306 304 304 304 306 308 311 314 317 318
317 317 318 318 319 319 318 318 318 316 313 312 309 309 310 310 310 310 310 310 311 311 311 312 312 312 312 313 313 312 313 313 313 313 313 313 313 313 313 313 313 313 313 313 313 312 312 311 309 307 303 300 299 299 300 301 303 305 308 311 313 314 314 313 313 313 315 314 314 315 315 312 311 310 307 304 303 303 303 303 304 307 311 314 315
317 318 318 318 318 318 318 317 317 316 313 311 309 309 310 310 309 309 310 310 310 311 311 311 312 311 312 312 313 312 312 312 312 312 312 312 312 312 312 312 312 312 312 312 312 311 311 311 309 306 302 299 299 299 300 301 302 305 308 311 312 313 312 312 311 312 313 312 310 311 313 311 308 306 304 302 302 303 303 303 304 305 309 312 313
317 317 318 317 317 317 318 317 316 316 314 311 309 309 310 310 309 309 310 310 310 311 311 311 311 311 311 312 312 312 312 312 312 312 311 311 311 312 312 311 311 311 311 311 310 310 310 310 308 305 301 299 299 299 300 301 302 305 308 309 311 311 311 311 310 311 311 309 308 309 308 306 304 302 301 302 302 302 303 303 303 304 307 309 310
317 317 317 317 317 317 317 316 316 315 313 311 309 309 310 310 309 310 310 310 310 310 311 311 311 311 311 311 311 312 312 312 312 312 312 311 311 311 312 312 311 311 311 310 310 309 308 308 308 306 301 299 299 299 300 301 302 305 307 308 309 309 309 309 309 310 310 308 306 305 304 303 301 299 299 301 302 302 303 303 303 304 305 306 307
318 318 317 317 317 317 316 316 315 314 312 310 309 309 310 309 309 310 309 310 310 310 310 310 310 311 311 311 311 311 311 311 311 311 311 311 310 311 311 311 310 310 310 310 309 308 307 307 307 306 302 298 297 298 299 300 301 303 305 306 306 307 307 308 308 309 308 306 304 303 302 300 298 297 297 299 300 301 302 302 302 303 305 305 307
319 320 319 318 317 317 317 315 314 313 310 308 308 308 309 309 310 309 309 310 310 309 309 310 310 310 310 310 310 310 310 310 310 310 310 309 309 309 310 310 309 309 309 309 309 308 306 305 306 306 304 299 297 296 296 297 299 301 303 304 304 305 306 307 307 307 306 304 302 301 300 298 296 296 296 296 298 299 300 301 301 302 302 303 305
321 322 321 318 317 317 316 314 313 312 309 308 308 308 308 309 309 309 309 310 309 308 309 309 309 309 310 310 310 310 310 309 309 309 309 309 308 308 309 309 309 308 308 309 308 307 306 305 304 305 305 302 300 297 294 293 296 298 300 302 303 303 304 305 306 307 305 303 302 300 298 296 296 296 295 296 297 298 299 300 301 300 300 301 302
320 320 318 317 317 317 315 313 312 310 308 308 308 307 308 309 309 308 308 309 308 308 308 308 308 308 309 309 309 309 309 308 309 309 308 308 308 308 309 309 309 308 308 308 308 307 305 304 304 304 304 303 302 300 295 291 292 295 298 301 301 301 302 303 305 306 305 303 301 300 298 296 296 296 296 296 296 297 298 299 299 299 299 300 300
318 317 317 317 317 316 314 313 312 310 308 308 307 307 309 309 308 308 308 308 308 308 308 308 308 308 308 309 309 309 308 307 308 308 308 307 307 308 308 308 307 307 307 307 307 306 305 305 304 303 304 303 302 301 298 292 290 292 295 298 299 299 299 301 303 304 305 303 302 301 299 296 296 296 296 296 296 296 297 298 299 298 298 299 299
317 317 317 317 316 315 315 313 311 309 309 308 306 307 309 308 308 308 308 308 307 307 307 308 308 308 308 308 308 308 308 307 307 307 307 306 307 307 307 307 306 306 306 307 307 306 305 305 304 304 304 303 302 301 299 293 290 290 292 295 296 295 297 299 301 302 304 303 302 302 300 297 296 296 297 297 296 296 297 297 298 298 297 298 298
317 317 317 317 316 315 314 312 310 309 309 307 306 307 309 308 308 308 308 308 307 306 307 307 307 307 308 307 308 308 308 307 307 306 306 306 306 307 307 307 306 306 306 306 306 306 305 304 304 304 304 303 301 301 299 294 290 289 290 291 292 292 294 297 299 300 303 302 301 301 300 297 296 297 297 297 297 297 297 297 297 297 297 298 298
317 317 316 316 315 314 313 312 310 309 308 307 306 308 309 308 308 309 308 308 307 306 306 307 307 307 307 306 307 307 307 307 307 307 306 306 306 306 306 307 307 307 306 306 305 306 305 304 304 304 304 303 301 299 298 294 290 289 288 289 291 291 292 295 297 299 301 301 299 298 298 297 297 297 298 298 297 297 297 297 297 297 298 298 299
317 316 316 315 314 313 312 311 310 309 308 307 307 308 309 308 308 309 309 307 307 306 306 307 307 306 306 306 306 306 307 307 307 307 307 306 306 306 305 305 306 306 306 305 304 304 304 304 304 303 303 303 300 298 298 295 290 288 288 288 290 290 290 293 296 297 299 299 297 295 296 297 297 298 298 298 298 298 297 297 297 297 298 298 298
317 316 315 314 313 311 311 310 310 309 307 306 307 308 308 308 309 309 308 307 306 306 306 306 306 305 305 305 305 306 306 306 306 307 306 305 306 306 305 305 305 305 305 304 303 302 303 302 303 302 302 302 300 297 297 295 290 288 288 288 289 289 289 292 295 297 297 296 294 294 297 298 297 298 298 298 299 298 297 297 297 297 298 298 297
316 315 314 313 312 311 310 310 310 309 307 306 307 309 308 307 309 309 307 306 307 306 306 306 306 305 305 305 305 306 305 305 306 306 305 305 305 304 304 304 304 303 303 303 302 301 301 301 301 301 300 301 300 298 297 294 290 287 287 287 287 288 287 290 294 295 294 292 293 296 298 297 297 298 298 298 299 298 297 297 296 296 297 297 296
316 315 314 313 312 311 310 310 310 309 308 307 307 309 308 307 309 309 307 306 307 306 305 306 305 306 306 305 305 305 304 305 305 304 304 304 304 303 302 302 302 302 302 302 301 300 299 299 300 300 299 298 298 298 296 293 289 287 287 287 287 287 286 288 291 291 290 292 295 297 297 297 297 297 297 297 297 296 295 295 295 295 296 295 294
316 316 314 313 312 311 310 310 310 309 308 307 308 308 308 308 309 309 306 306 306 306 305 306 306 306 305 305 304 303 303 304 305 304 303 304 304 303 301 300 300 300 300 301 301 299 298 298 298 299 298 297 297 297 295 291 288 287 287 286 286 287 286 287 288 288 290 294 297 297 296 296 296 296 296 295 295 294 294 294 294 293 294 293 292
316 316 314 313 312 312 311 310 310 309 307 307 308 308 307 308 309 308 306 306 307 306 306 306 306 305 305 305 305 304 303 304 304 304 304 303 303 303 300 297 297 297 298 299 299 297 296 296 297 298 297 295 295 295 292 289 287 286 286 286 286 287 286 287 288 289 291 295 296 296 296 295 294 295 296 295 294 294 294 293 293 293 293 292 292
316 316 315 313 312 312 311 311 310 309 308 307 308 308 307 308 309 307 306 307 307 306 306 306 306 305 305 304 304 303 304 304 303 302 303 302 303 303 300 295 293 293 294 296 297 296 294 294 295 296 295 293 294 293 290 286 285 285 285 285 286 286 286 287 289 290 292 295 296 296 295 294 294 295 295 294 294 294 293 293 293 292 292 292 291
317 316 315 314 313 312 312 311 311 310 308 307 308 307 307 308 308 307 306 307 307 306 306 306 305 305 305 304 302 301 303 304 302 301 300 298 299 301 300 294 291 291 291 292 293 293 291 291 294 294 292 291 292 290 287 285 285 285 285 285 285 286 287 288 290 291 292 294 295 295 294 294 293 294 294 293 293 293 293 292 292 291 291 291 291
316 316 315 315 313 312 312 312 311 310 309 307 307 307 307 307 308 307 306 307 307 306 306 306 306 305 305 305 303 302 303 304 303 300 298 296 295 297 297 295 293 292 291 290 290 290 289 289 291 291 289 288 288 287 285 285 285 285 285 285 286 288 288 289 290 292 292 293 294 294 294 293 293 293 293 293 292 293 292 292 291 291 290 290 290
316 317 316 315 314 313 312 312 311 311 309 308 307 307 307 307 307 306 306 307 307 306 306 306 306 305 305 304 303 303 303 303 303 302 300 298 296 294 294 295 295 294 293 292 291 291 290 289 289 288 287 286 286 285 285 285 285 285 285 286 288 290 290 290 290 292 293 293 293 294 293 293 293 293 292 292 292 292 292 291 291 291 290 289 290
Wind_Speed
15 17 17 17 15 14 13 13 13 11 10 10 10 10 9 9 8 8 8 8 9 11 10 10 10 9 9 9 10 11 11 12 12 12 12 12 11 11 11 11 13 14 15 15 16 18 18 18 20 21 20 20 21 21 21 20 19 17 17 18 18 17 18 18 18 18 18 14 14 17 17 17 16 16 18 18 18 18 19 19 20 20 21 21 21
14 15 16 17 15 15 13 13 13 12 11 10 10 10 9 9 9 9 8 8 9 11 11 11 11 10 10 11 11 12 13 13 14 15 14 13 12 12 12 13 13 14 15 16 16 17 17 18 21 22 21 22 22 22 22 21 20 18 16 16 17 18 17 17 17 17 17 13 10 11 13 15 17 18 20 21 21 20 20 21 22 23 22 22 22
10 12 13 14 14 14 13 13 13 13 12 11 10 10 9 10 10 9 8 8 8 9 10 11 12 10 10 11 12 13 14 14 15 16 16 16 16 14 14 15 14 14 15 16 16 16 17 18 20 22 22 22 22 22 20 20 21 19 17 16 14 14 16 18 19 17 16 14 10 6 4 5 9 15 21 24 24 23 22 22 23 24 25 24 23
10 11 11 12 13 12 12 13 12 12 12 11 10 9 9 9 9 9 8 8 7 8 10 11 11 11 11 11 12 13 13 15 16 16 15 15 15 15 14 14 14 14 14 15 16 17 17 18 20 21 22 23 23 22 21 21 22 22 21 20 16 15 18 20 19 20 20 14 7 4 3 3 5 8 14 22 26 26 25 25 24 23 24 25 24
11 11 11 12 13 12 13 13 12 12 11 11 10 9 8 8 9 8 8 7 7 8 10 10 10 11 12 13 13 13 13 14 15 16 15 14 14 13 12 12 12 13 13 14 15 16 17 18 20 21 22 24 24 23 22 21 22 24 25 23 22 22 23 21 19 20 22 21 15 7 3 3 3 4 5 11 19 23 23 24 24 23 22 23 25
10 11 11 13 13 13 14 13 13 12 10 9 9 8 8 7 8 8 7 7 6 8 9 10 10 11 12 13 14 13 13 12 14 16 17 17 17 16 15 13 13 13 14 15 15 15 17 16 16 18 21 23 22 20 21 21 20 24 26 25 25 26 25 21 19 20 20 24 25 21 16 10 4 3 3 3 7 13 17 20 22 23 24 23 23
9 10 11 12 13 13 13 13 12 11 9 8 7 7 7 7 8 7 7 6 6 8 9 9 11 11 12 13 13 13 14 13 13 15 17 18 18 18 17 16 14 14 14 15 15 14 15 15 15 16 18 20 20 19 20 21 21 23 25 26 25 26 24 21 21 22 21 21 23 25 25 22 14 7 3 2 3 6 11 16 18 18 19 20 22
8 9 9 10 12 12 12 12 11 10 9 8 7 6 6 6 7 7 7 6 6 9 9 10 11 12 12 13 14 14 15 16 16 16 16 16 17 18 18 17 15 15 15 16 15 14 14 14 15 16 17 18 20 21 21 22 22 24 26 27 26 25 25 24 23 22 20 19 18 18 20 21 19 15 9 3 1 4 8 11 17 20 18 17 18
8 8 9 9 11 11 11 11 10 9 9 8 7 6 6 6 6 7 6 6 7 8 9 10 11 11 12 13 14 15 15 17 17 17 17 16 17 18 18 17 17 16 16 16 16 16 15 14 14 15 16 18 20 22 23 23 23 24 25 27 28 26 26 26 24 22 20 20 17 13 14 18 19 18 14 7 4 5 6 5 11 18 18 20 22
8 8 9 9 10 10 10 10 10 9 8 8 8 7 6 6 6 6 7 7 7 8 9 10 10 10 11 13 13 14 15 16 16 16 17 17 17 18 18 17 17 16 15 16 16 16 15 15 15 15 15 18 20 21 23 24 24 23 23 25 27 27 28 28 26 25 24 23 18 10 9 13 13 11 11 9 7 7 7 5 9 10 11 19 25
7 8 9 9 8 9 9 8 9 9 8 8 8 7 6 6 7 7 7 8 8 8 9 9 10 10 11 13 12 12 14 15 15 15 15 16 17 17 16 15 16 15 14 15 15 16 16 15 14 13 11 13 17 19 20 22 23 23 20 21 24 26 27 27 27 28 27 25 24 18 13 14 14 11 13 12 8 7 7 5 8 11 11 17 24
8 8 7 8 7 7 7 7 8 8 8 8 7 7 7 7 8 8 9 9 9 10 9 8 8 9 10 12 12 11 13 14 14 14 14 15 16 17 17 15 15 14 14 15 15 16 17 15 14 13 11 11 14 17 19 19 20 19 18 19 22 24 25 25 26 28 27 27 26 23 19 19 19 18 19 16 13 13 10 5 7 11 9 14 22
8 8 5 5 5 5 6 6 7 7 8 8 8 8 8 8 10 10 10 11 11 12 12 9 8 9 9 11 11 12 13 13 13 13 14 14 15 16 17 16 17 17 16 17 16 16 16 15 14 14 13 12 12 13 15 17 18 17 17 20 22 22 22 22 24 25 25 25 24 22 20 20 21 23 23 20 18 18 12 7 10 10 6 10 19
6 8 5 4 4 5 5 5 6 7 8 8 9 9 9 9 11 12 11 12 12 13 13 10 8 9 9 10 11 11 13 13 12 13 13 14 15 16 16 15 17 18 18 18 17 15 15 14 14 15 12 11 12 14 15 16 16 17 18 19 19 20 20 20 21 21 21 22 22 22 20 20 21 23 23 22 21 19 16 12 10 8 8 10 15
6 6 5 6 5 5 5 5 5 6 7 9 9 10 10 10 11 12 12 12 13 13 13 11 9 9 9 11 11 11 13 15 14 14 14 15 16 16 16 16 16 16 17 17 18 17 15 13 13 15 14 12 12 14 15 16 14 15 18 18 19 19 19 20 20 20 20 21 21 21 21 21 20 20 20 19 20 20 19 18 12 5 6 8 10
5 5 5 7 6 4 5 4 4 5 6 8 8 9 10 9 11 12 11 11 12 13 13 10 8 8 10 11 13 13 14 15 16 16 16 15 15 15 15 16 17 17 17 17 17 17 16 14 12 12 14 12 11 12 12 12 10 11 13 15 18 18 18 19 20 19 20 20 20 20 19 20 20 19 18 17 18 19 19 19 16 10 7 5 5
5 5 6 7 6 5 5 3 3 4 5 6 7 7 8 8 10 11 11 11 12 13 13 11 9 8 9 11 13 15 15 15 16 17 17 16 15 15 15 16 17 16 16 17 16 17 17 16 13 11 13 11 9 12 11 8 8 9 10 10 13 14 15 17 18 19 21 20 21 21 20 21 22 22 21 19 18 19 20 21 21 18 14 8 5
6 6 6 7 6 6 5 2 2 3 3 4 5 6 7 7 9 10 10 11 13 13 13 14 13 11 10 11 13 15 15 15 16 17 18 17 16 16 16 16 17 15 15 16 15 16 16 15 13 12 13 13 12 13 12 10 11 12 11 11 10 11 12 13 14 17 19 20 21 22 20 21 22 22 22 21 20 19 21 23 23 21 19 15 9
6 6 6 6 5 5 5 3 1 1 1 3 4 6 7 7 8 9 9 10 12 12 12 12 13 14 14 14 14 14 15 15 16 17 17 16 16 17 16 15 16 15 14 13 13 14 15 14 15 15 14 15 14 15 15 13 14 14 13 12 11 11 12 13 14 15 16 17 18 19 18 19 20 20 20 20 20 20 21 23 22 20 21 23 19
6 6 6 7 6 4 5 4 1 1 1 2 4 6 6 6 7 8 7 9 11 12 12 11 12 14 14 15 15 15 14 14 15 16 16 16 16 16 16 15 15 14 13 12 14 15 15 15 16 16 15 16 16 17 16 15 15 15 14 14 13 12 12 13 14 14 13 13 13 14 14 15 17 18 18 17 17 19 20 20 20 19 20 23 22
6 6 5 7 8 5 4 4 2 1 0 2 4 6 6 6 8 8 7 8 10 11 11 11 11 12 13 14 15 15 15 15 16 16 16 16 16 16 17 16 15 15 14 16 18 18 17 18 18 17 16 16 16 17 17 16 16 16 15 15 15 14 14 14 14 14 12 11 10 11 12 12 13 13 14 14 15 17 16 16 17 18 19 20 19
6 5 4 6 8 6 5 4 3 2 0 3 5 5 5 6 7 8 7 8 9 10 10 10 11 12 13 13 14 15 15 15 16 17 16 17 17 17 17 17 17 18 18 19 19 18 18 19 19 18 18 17 17 16 16 16 17 17 16 16 16 16 15 14 14 14 14 13 13 12 13 13 12 12 11 12 14 15 13 13 15 16 19 21 18
7 5 4 5 8 6 5 4 3 3 1 2 3 4 4 4 6 7 7 7 7 9 10 10 11 11 11 12 13 14 13 14 15 16 16 16 17 17 17 17 17 18 18 18 19 18 18 18 19 19 20 21 19 18 17 17 17 18 17 16 16 16 16 14 12 13 14 15 15 15 15 14 13 13 12 11 12 12 11 11 14 12 13 18 17
7 6 5 6 8 6 5 4 4 2 3 3 1 4 3 3 5 6 6 6 6 7 9 9 9 9 10 11 11 12 13 14 15 15 16 16 16 17 17 17 17 17 18 17 17 18 18 19 20 20 22 24 22 20 19 19 19 19 19 17 15 16 17 16 12 11 13 15 16 17 17 16 15 16 16 14 13 13 10 9 11 10 8 11 15
7 7 6 6 7 7 7 5 3 2 2 2 2 2 1 3 4 4 4 5 6 6 7 9 9 9 10 9 10 11 12 13 14 14 15 15 15 16 16 17 17 16 16 17 17 18 19 21 23 23 24 24 23 21 21 21 20 20 20 18 17 17 19 19 16 13 12 13 14 16 18 18 17 17 18 19 18 17 14 12 12 12 10 11 12
7 7 6 5 5 6 5 2 4 3 1 1 1 2 1 4 2 2 3 4 5 6 6 7 8 8 8 9 10 10 10 11 12 12 13 13 15 15 15 16 16 15 15 15 16 17 18 20 24 26 26 25 24 24 22 22 21 20 20 18 17 19 19 19 19 17 15 14 13 15 18 20 20 20 19 20 20 20 19 18 16 15 12 11 11
6 5 5 5 5 5 2 5 4 1 1 1 2 2 2 3 2 2 3 3 4 5 5 5 7 7 7 7 8 8 8 9 10 11 12 12 13 14 14 15 15 14 15 14 13 14 15 17 20 25 29 27 26 25 23 23 22 20 20 18 17 19 19 18 19 19 20 18 15 16 20 21 22 22 22 21 21 20 20 19 18 17 15 14 13
7 6 6 5 5 3 3 5 2 0 1 0 2 1 2 2 2 2 3 3 3 4 5 4 5 6 6 6 7 6 7 8 8 9 10 11 12 13 13 14 15 15 15 15 14 12 13 15 16 22 28 29 28 27 25 23 22 21 20 18 18 19 18 18 19 19 19 18 15 16 20 21 22 23 23 23 23 22 21 20 18 17 17 16 16
9 9 8 6 6 5 5 4 3 2 2 2 1 1 2 1 1 2 2 2 2 3 4 4 4 5 5 6 6 6 6 7 8 9 10 10 11 12 12 13 14 15 15 15 15 13 13 13 14 19 26 29 30 29 26 23 21 21 19 18 19 18 17 17 18 18 18 17 15 15 17 20 22 23 23 24 23 22 21 20 18 17 16 16 17
10 10 10 9 8 9 10 6 5 4 3 2 1 0 2 2 1 1 2 2 2 3 3 4 4 4 4 5 5 6 6 7 8 9 10 11 11 11 12 13 13 14 14 15 15 16 15 14 14 20 26 29 30 31 27 21 18 19 18 18 18 18 17 17 18 17 17 17 17 14 14 19 22 23 25 26 25 23 22 20 17 14 14 16 17
10 10 11 11 10 10 12 10 7 5 3 2 1 1 2 2 1 2 2 2 3 3 3 4 4 4 4 5 5 5 7 7 8 9 10 11 11 11 12 12 13 13 13 14 14 15 16 15 15 20 25 27 30 31 27 21 18 17 18 18 18 17 16 16 17 17 16 18 19 17 16 21 25 27 29 29 26 25 23 21 18 15 13 15 17
8 10 11 11 10 10 11 11 8 6 5 4 4 3 4 3 2 2 2 2 2 3 3 4 4 4 5 5 5 6 7 7 8 9 10 10 11 11 11 11 12 12 12 13 13 14 16 14 14 19 24 26 29 31 29 24 19 17 19 19 18 16 16 16 17 16 15 18 20 19 20 23 26 30 32 30 28 27 24 22 21 18 15 13 13
7 8 10 11 11 11 11 11 10 8 7 6 5 4 4 4 3 3 2 2 2 3 3 4 5 5 5 5 6 7 7 7 8 8 9 10 10 10 10 11 11 11 11 12 13 14 15 14 13 17 22 26 29 30 30 27 21 18 20 21 19 16 16 16 16 15 15 19 20 20 22 23 25 30 32 31 30 29 26 24 22 20 18 16 15
6 6 10 12 12 13 14 13 10 9 7 7 6 4 5 5 4 4 3 2 3 4 4 4 5 5 5 6 7 7 7 8 8 8 9 10 10 10 10 10 11 11 11 12 13 13 14 14 13 13 19 26 29 30 29 28 24 20 21 21 19 17 15 16 16 15 16 19 20 20 22 22 24 29 31 31 31 29 26 25 23 21 20 19 18
6 6 10 13 14 15 17 15 11 10 9 8 7 7 7 7 6 5 4 3 4 5 4 4 5 5 5 6 7 7 7 8 8 8 9 9 10 10 10 10 10 10 10 10 11 13 13 14 13 11 14 22 28 30 29 28 26 23 21 21 20 18 16 16 16 15 16 19 21 22 24 23 24 28 29 29 30 28 24 23 23 22 22 21 18
3 8 12 16 17 18 19 15 13 12 10 9 10 9 8 7 7 6 5 4 5 6 5 5 5 5 6 6 7 7 7 7 8 8 9 9 9 9 9 9 8 9 9 9 10 11 12 13 13 12 12 17 23 29 30 28 26 24 22 22 21 18 17 17 15 14 16 20 22 24 27 25 24 27 28 28 29 26 22 21 23 24 24 22 19
10 17 17 18 19 19 18 16 14 13 11 10 11 9 8 8 7 7 6 5 5 6 5 5 5 5 5 5 6 7 6 7 8 8 9 8 8 8 8 7 7 8 8 8 9 10 10 11 12 12 12 14 18 25 29 29 27 24 22 21 21 20 18 17 16 13 14 18 20 23 28 27 23 25 27 28 29 28 23 21 23 25 25 24 24
17 20 18 18 18 18 18 16 14 13 11 10 11 9 8 8 8 7 7 6 6 6 6 6 6 6 6 6 6 7 7 8 8 8 8 8 8 8 8 8 8 7 7 7 8 8 8 9 10 10 11 12 16 21 27 30 28 25 23 20 20 21 19 18 19 15 13 15 17 20 25 26 22 22 25 27 27 28 26 22 22 25 25 24 27
16 17 16 17 17 17 17 15 14 13 11 11 11 10 9 9 8 8 8 7 6 6 6 6 6 6 6 6 7 7 7 7 8 8 7 7 7 7 7 8 8 9 8 7 6 6 7 7 7 7 8 10 13 17 23 27 25 23 22 20 19 22 21 19 20 19 15 15 16 19 22 24 22 20 22 24 25 26 26 23 22 25 25 24 27
14 15 15 16 16 16 16 15 14 14 13 12 11 10 10 10 9 8 8 8 7 6 7 7 6 6 7 7 7 7 7 7 7 6 6 6 6 6 6 6 7 8 8 7 6 5 5 6 5 5 6 7 9 12 17 22 23 21 22 21 20 22 21 18 18 18 16 16 17 17 20 22 23 20 19 21 23 25 24 23 23 25 25 25 28
15 16 16 15 15 16 15 15 15 14 13 13 12 10 9 10 10 8 8 9 7 6 7 7 7 7 7 7 7 6 6 6 5 5 5 5 5 6 6 5 5 6 6 6 7 6 5 5 6 6 5 4 6 10 15 21 23 22 22 21 19 20 20 17 15 15 15 15 17 18 18 19 22 21 20 19 21 24 24 22 24 25 23 23 28
18 19 17 15 14 15 15 15 15 15 14 13 13 12 10 10 10 9 9 9 8 7 7 7 7 8 7 7 6 5 4 4 4 4 4 4 4 4 5 6 4 3 3 5 6 6 6 6 7 8 6 4 7 11 14 19 23 22 21 20 18 18 17 15 13 13 14 14 17 17 16 17 19 19 20 19 19 23 24 22 23 25 22 21 25
19 20 17 15 14 15 15 15 15 16 15 14 13 13 12 11 11 10 10 10 9 8 8 8 8 8 7 6 5 4 3 3 3 3 3 4 3 3 3 4 5 4 4 4 5 6 7 6 7 8 7 5 6 10 13 18 22 22 20 19 17 17 16 14 13 12 13 15 16 16 14 16 18 17 18 18 17 21 24 23 22 24 22 21 23
18 18 17 16 15 15 15 15 16 16 16 15 14 13 13 12 12 12 12 11 10 9 9 9 8 7 7 6 5 4 4 3 2 2 2 3 4 3 3 4 5 5 5 6 6 7 7 7 7 8 8 6 6 8 12 18 21 21 20 19 18 18 17 15 12 11 13 15 14 13 13 16 17 16 16 17 16 19 22 21 22 23 21 21 23
17 18 18 17 15 16 16 16 16 17 16 15 15 14 14 13 13 13 13 12 11 10 10 9 9 8 7 6 5 5 4 3 3 2 3 3 3 4 5 6 7 7 7 7 7 8 8 8 8 8 8 8 7 7 11 18 20 19 19 19 18 18 18 16 13 12 14 13 11 12 13 14 16 15 15 16 16 17 19 19 20 21 21 22 24
17 18 18 17 16 16 18 17 17 18 17 16 16 16 15 15 14 14 14 13 12 12 11 10 10 9 8 7 7 6 5 4 3 3 3 3 3 4 6 7 8 8 8 8 7 8 8 8 8 8 9 9 8 8 13 18 18 18 18 18 18 18 18 17 16 15 14 12 11 12 13 15 17 15 14 15 16 16 17 17 19 20 20 22 24
18 19 19 18 16 17 18 18 18 19 18 16 16 16 16 16 15 15 15 14 14 13 12 11 11 10 9 8 7 8 7 6 4 4 4 4 4 5 7 7 7 7 7 8 8 8 7 7 8 9 9 9 9 10 15 18 17 17 18 17 17 18 18 18 18 17 15 13 14 14 14 16 17 15 14 15 15 16 16 17 19 19 19 21 22
18 21 21 19 17 18 19 19 19 20 19 18 17 17 17 17 17 16 16 15 15 14 13 12 12 11 10 9 7 8 9 8 5 4 5 6 6 6 7 6 6 6 5 5 6 6 6 6 8 8 8 9 9 10 15 17 17 16 17 16 16 17 18 18 18 18 16 14 15 16 15 15 16 15 15 15 15 16 17 17 18 19 18 19 20
19 22 23 21 19 19 21 21 21 21 20 20 19 18 18 19 18 17 17 17 16 16 14 13 12 12 11 10 9 9 9 8 8 7 6 6 6 6 5 5 5 5 4 3 3 3 3 4 5 6 7 7 7 10 13 14 14 14 14 15 14 15 16 16 15 16 17 16 16 15 14 15 16 15 15 16 16 16 17 17 17 18 18 20 20
20 23 25 23 21 21 22 22 22 22 22 21 21 20 20 20 19 19 19 18 18 16 15 14 13 13 12 11 11 10 9 8 9 11 10 8 8 8 5 4 5 5 4 4 3 3 4 6 4 4 6 7 7 10 12 12 11 12 12 11 11 12 14 14 13 14 16 16 15 14 13 14 15 15 15 16 16 16 17 17 17 18 18 20 20
21 22 24 24 22 21 23 23 23 23 23 22 22 22 22 21 21 20 20 19 19 17 16 15 14 14 13 13 12 11 11 9 10 13 13 12 11 11 8 5 4 4 4 4 3 4 5 7 6 5 7 9 9 10 11 11 11 11 10 9 8 10 12 13 12 13 15 15 14 12 13 14 14 14 14 15 16 16 16 17 17 17 18 19 19
Wind_Direction
124 125 122 119 116 111 111 112 107 100 95 93 87 82 73 67 66 56 45 40 29 20 17 11 2 354 343 331 324 316 308 306 299 289 284 277 273 267 261 260 259 258 256 253 251 251 249 243 244 243 241 243 241 239 235 231 233 238 244 246 243 243 245 246 248 254 266 267 247 240 239 240 238 236 242 244 240 237 234 232 231 231 229 225 223
125 122 117 117 116 114 111 108 107 100 94 90 84 78 68 60 58 52 47 42 30 20 13 1 353 346 332 324 317 309 304 301 297 293 293 289 285 279 272 270 268 264 261 258 253 254 253 246 245 246 244 244 244 243 240 236 235 237 247 253 250 250 250 249 246 246 255 259 248 236 229 231 237 242 246 247 244 241 238 236 235 234 233 230 228
119 111 106 105 105 109 108 104 103 100 94 88 81 75 62 53 48 46 46 42 33 21 9 355 345 339 329 321 315 309 301 296 291 286 285 285 283 282 278 273 272 269 265 262 258 256 254 250 250 248 245 244 242 240 239 238 237 236 243 253 260 270 268 259 252 247 251 255 254 248 222 225 241 242 243 244 244 242 241 240 237 237 237 235 234
121 112 106 103 101 101 101 101 98 92 88 80 75 70 59 49 40 38 40 35 33 22 5 353 343 338 331 324 319 313 306 302 296 286 280 279 281 281 279 276 274 272 269 268 264 260 256 254 253 249 244 244 243 240 238 239 239 236 238 241 243 251 256 256 253 248 249 251 250 243 223 234 251 234 232 238 240 239 240 239 237 237 239 238 236
130 122 119 114 108 103 99 97 90 84 79 73 70 65 58 50 38 34 32 27 26 14 0 352 345 338 334 330 325 321 318 316 312 306 300 297 297 294 289 284 279 278 279 278 272 267 263 256 254 252 247 246 246 243 240 240 241 238 238 239 236 233 235 244 254 250 244 241 238 238 230 220 248 268 258 243 238 236 238 242 241 239 238 238 237
127 124 123 117 113 108 101 93 87 82 79 75 70 63 62 53 40 34 25 20 16 4 357 353 345 338 336 332 327 323 320 319 317 315 315 315 311 306 302 296 287 284 284 283 279 275 272 264 256 254 251 249 248 243 237 235 238 238 238 239 237 235 232 237 253 257 251 244 238 237 243 248 260 305 320 287 256 247 246 247 245 241 239 239 238
125 119 114 111 109 104 99 95 91 90 89 86 78 65 62 53 41 33 22 16 11 359 352 352 346 339 336 328 321 317 313 311 309 307 307 307 306 302 299 295 289 285 283 283 282 279 278 273 266 260 256 251 246 243 238 234 236 239 238 237 237 238 233 231 243 250 253 252 244 238 242 247 256 269 275 301 317 295 270 262 261 253 242 239 241
129 115 108 106 102 98 97 97 95 97 97 94 87 73 63 55 41 31 22 15 8 357 350 349 346 340 337 331 324 319 316 314 311 308 305 302 301 300 299 296 290 287 286 285 283 282 280 276 270 262 257 251 243 242 240 237 238 239 238 236 238 239 232 229 238 242 244 249 249 243 241 244 250 257 263 264 294 303 293 288 287 284 271 256 250
123 114 111 104 99 98 98 98 98 98 95 91 88 76 67 61 41 31 27 18 8 359 352 350 347 344 343 339 331 323 321 319 317 316 316 314 308 302 300 297 293 289 289 290 288 286 283 280 271 260 258 253 245 242 243 241 238 238 240 238 238 239 235 232 238 241 242 243 244 246 245 246 251 257 261 253 211 241 274 289 284 285 282 269 259
120 114 110 106 104 103 99 97 96 92 85 83 80 70 66 59 39 33 30 20 9 0 358 354 351 351 350 344 335 326 325 325 325 326 326 328 322 311 304 297 295 294 291 293 294 292 291 285 272 259 255 255 251 246 245 245 241 240 245 244 240 241 241 239 241 245 247 247 247 242 227 230 243 256 255 241 212 217 242 254 259 265 273 270 265
130 121 116 115 109 104 99 91 87 83 74 71 67 62 59 48 34 30 27 21 12 1 1 1 356 355 353 347 337 333 335 333 333 334 336 338 335 329 322 311 307 305 304 306 305 309 310 300 289 275 256 258 264 262 253 247 245 244 246 248 246 245 245 246 248 250 250 250 249 243 232 230 234 238 236 227 205 207 229 244 253 254 261 269 270
141 127 123 125 115 102 95 82 77 72 64 59 56 53 48 36 28 23 19 18 6 354 360 8 0 355 352 344 338 341 344 343 341 340 344 345 340 339 339 339 334 325 322 326 326 329 326 316 311 305 288 276 270 264 259 251 246 244 244 245 246 247 248 249 249 250 248 248 247 243 240 241 241 242 242 234 225 228 232 228 243 251 264 274 277
143 128 128 129 123 108 90 77 71 63 54 47 42 40 34 26 21 15 13 12 1 355 2 11 4 354 346 339 341 346 345 346 346 344 349 350 344 342 343 347 348 343 339 338 338 339 335 328 323 317 311 303 287 273 268 262 254 248 245 244 245 249 252 251 250 250 249 249 248 245 243 245 246 248 247 242 238 237 233 234 243 240 244 273 279
106 121 136 131 120 107 90 72 63 55 45 37 31 28 23 18 15 9 8 5 356 357 5 9 4 353 343 340 345 347 344 346 346 344 349 352 350 349 348 349 347 346 346 344 345 346 344 341 330 322 324 321 315 311 299 290 279 264 260 257 254 255 254 253 254 255 255 254 251 250 249 251 253 251 247 243 240 237 232 233 241 236 234 251 263
110 137 149 131 121 110 101 79 58 53 40 29 23 20 14 10 9 3 2 360 350 356 7 5 359 352 344 344 346 349 350 351 352 349 351 356 354 351 352 353 350 349 350 350 354 354 352 351 339 333 339 336 338 338 322 316 311 287 280 276 267 265 262 259 260 261 263 261 257 254 252 254 257 257 257 253 248 244 240 236 232 227 243 245 250
148 154 142 129 130 127 112 85 58 58 39 24 17 14 6 4 6 357 356 357 347 354 4 0 356 352 350 350 348 353 356 356 358 356 353 355 358 356 354 355 356 356 357 360 5 2 357 3 4 1 359 349 349 358 343 331 324 302 294 282 270 277 284 276 269 267 267 267 266 264 258 258 260 261 263 261 257 255 253 250 245 237 241 243 249
172 160 146 141 145 137 118 98 79 69 36 18 12 7 0 2 2 351 354 355 344 349 359 358 1 359 356 357 354 355 357 356 358 358 354 352 357 360 357 358 359 359 0 3 9 10 7 15 25 24 20 14 2 1 357 350 345 336 328 304 282 287 292 281 271 268 267 267 270 271 269 266 265 266 265 262 260 257 255 257 255 245 237 237 258
185 166 146 145 148 141 131 113 82 78 40 13 3 360 1 4 356 347 355 355 340 346 0 1 3 6 4 1 357 357 357 357 357 357 357 357 358 1 2 3 1 2 7 8 10 12 10 19 31 28 28 33 23 14 15 12 8 6 357 337 317 310 305 294 286 281 278 274 271 271 274 272 269 269 269 267 263 260 257 258 257 251 242 235 235
190 172 153 150 153 154 147 133 41 81 71 22 6 360 357 360 355 348 355 353 340 346 4 7 4 7 8 3 359 357 356 357 357 356 359 0 0 4 6 4 4 10 16 13 13 15 13 22 36 33 33 38 33 28 29 24 17 17 12 4 352 339 331 324 316 307 297 289 281 277 277 274 271 271 271 270 268 268 270 270 269 265 252 238 228
180 180 174 157 159 162 143 141 282 331 42 19 18 6 355 359 358 350 356 354 345 351 6 13 11 8 5 2 359 358 357 357 357 357 2 5 4 7 8 7 11 15 14 17 26 29 26 33 43 40 36 35 32 29 29 24 20 17 12 12 10 2 355 349 341 332 317 301 295 295 292 285 284 283 280 280 280 280 282 279 276 274 263 249 237
167 182 178 157 157 159 149 166 234 290 34 54 33 5 354 7 357 349 2 0 351 356 4 13 21 14 6 4 1 359 1 1 1 3 5 8 10 11 13 18 24 27 26 33 43 44 39 38 41 40 34 30 28 25 21 17 15 14 12 12 11 9 11 9 6 3 351 337 327 324 321 316 311 305 294 292 293 290 292 292 287 285 280 271 258
162 176 167 158 156 162 188 197 212 243 250 51 29 355 351 10 355 349 7 5 355 354 355 11 26 18 8 7 5 4 6 5 5 8 10 12 14 15 20 28 36 41 42 44 46 45 42 39 37 36 32 29 28 25 20 16 12 11 10 8 4 5 10 12 16 19 14 10 5 356 354 349 339 331 320 313 310 303 304 313 313 302 286 279 277
166 173 165 169 158 168 207 208 213 229 163 75 13 345 355 12 355 353 6 6 1 352 349 8 26 21 14 13 10 7 9 8 7 11 14 16 17 19 27 35 40 44 45 44 43 42 42 40 37 34 29 28 28 25 22 19 17 16 12 6 0 359 1 3 11 20 19 23 27 24 23 18 11 10 3 352 346 336 325 324 324 312 286 279 286
170 173 169 174 159 172 215 216 209 195 121 116 33 338 344 30 6 357 1 2 5 359 352 2 17 26 27 19 11 8 8 9 10 13 16 17 20 23 30 36 41 46 45 43 44 44 43 41 39 35 29 29 29 25 24 24 22 21 17 13 10 3 359 359 4 14 21 28 36 38 39 38 36 37 31 23 18 10 1 354 346 342 326 305 303
176 171 172 177 163 184 221 215 176 123 89 112 89 314 307 72 22 352 2 4 4 4 359 356 3 26 32 21 16 15 10 9 10 14 15 17 21 24 29 34 39 46 47 46 45 44 44 44 42 39 33 31 30 28 27 25 23 22 19 17 20 14 5 3 7 13 18 24 34 42 46 46 43 40 35 29 24 20 19 17 10 4 354 331 317
178 165 171 172 166 206 223 152 102 89 35 34 29 311 49 77 30 349 18 17 7 0 357 355 359 18 30 26 25 18 11 14 14 15 17 18 22 24 27 32 35 42 46 46 47 46 44 43 42 40 35 32 31 29 27 25 23 23 21 20 25 20 8 7 15 20 21 24 37 50 49 45 42 39 32 26 22 19 19 18 14 10 2 343 328
172 170 187 170 173 220 180 97 85 72 71 20 325 321 55 55 13 38 40 26 16 356 352 1 4 12 23 38 38 17 13 23 21 20 22 23 26 27 28 31 34 38 41 43 49 51 49 44 38 36 33 30 30 28 26 26 25 23 23 24 30 24 10 10 20 22 23 29 45 53 46 41 40 37 30 23 17 12 10 10 8 3 360 352 342
165 189 204 184 183 193 121 107 116 9 44 341 293 317 70 31 354 46 37 22 25 359 354 4 15 13 12 38 51 28 22 30 25 27 29 28 33 32 32 37 38 39 38 38 43 50 55 50 37 29 27 25 27 26 22 22 23 24 25 28 33 26 12 13 22 22 24 31 43 49 45 40 34 30 27 22 16 11 5 2 0 357 354 351 346
175 192 193 188 187 164 142 159 188 201 235 218 221 228 127 114 13 47 35 14 22 13 0 2 25 24 6 23 38 27 30 37 29 31 30 32 38 36 36 40 40 42 41 36 36 38 46 53 42 27 22 21 23 23 19 18 20 23 26 30 33 27 16 18 22 22 25 31 37 40 37 31 22 16 16 13 9 8 6 2 358 354 351 348 345
191 193 183 184 187 160 150 173 206 218 228 200 174 213 101 104 75 67 57 16 20 28 14 8 27 30 11 22 31 22 28 34 32 34 31 33 38 36 39 42 39 41 41 37 35 31 34 49 48 33 25 22 21 20 19 19 22 24 26 31 33 26 21 23 22 22 25 26 27 29 20 11 5 2 2 1 1 3 5 5 4 1 356 350 344
197 192 181 179 177 157 152 171 200 212 211 190 202 200 125 128 134 92 64 31 30 33 29 26 32 35 26 29 34 33 35 31 32 38 34 32 36 36 38 41 39 40 40 38 37 32 33 46 48 35 28 25 23 21 20 22 28 31 31 32 33 26 23 26 23 24 28 23 21 24 15 3 358 357 356 356 358 2 4 5 7 11 10 357 346
199 193 179 168 163 159 159 165 176 189 193 185 193 195 167 152 130 101 81 64 57 40 37 43 43 47 45 37 38 46 48 38 34 40 39 34 36 37 38 39 38 38 39 40 41 38 36 42 46 37 31 29 26 24 23 25 30 37 36 34 33 28 26 27 25 25 31 29 25 23 17 7 359 357 358 359 359 0 2 5 8 13 14 5 356
217 183 158 150 156 163 158 150 156 179 190 180 186 190 157 140 137 129 121 113 99 72 55 57 57 57 54 49 50 53 52 46 40 42 43 40 40 39 36 37 38 37 40 41 42 42 37 38 46 40 31 30 28 25 26 28 31 39 40 36 32 28 29 28 25 28 36 36 30 19 12 7 0 359 2 4 2 0 2 5 8 10 7 6 11
230 163 142 146 154 154 144 141 154 172 171 164 169 165 145 147 156 147 138 133 118 99 74 67 68 64 57 56 60 57 52 53 49 45 46 44 42 41 36 37 38 36 38 41 41 43 40 37 44 41 30 29 28 24 24 28 31 37 41 37 29 27 32 29 25 33 41 37 30 21 14 8 4 5 9 9 6 5 7 6 5 6 3 5 12
225 165 141 141 142 135 132 139 155 158 156 163 167 164 162 163 160 151 149 144 123 110 92 79 74 68 63 61 63 60 54 55 55 51 51 46 42 41 36 38 40 35 37 44 45 45 43 38 42 42 30 26 25 22 21 24 26 31 38 36 25 23 31 27 25 38 43 36 30 24 17 12 10 13 16 14 11 12 12 6 3 3 1 2 6
194 127 121 125 130 130 132 141 150 153 166 179 172 169 171 166 158 152 150 143 127 117 104 93 81 71 67 62 64 65 57 55 58 53 50 45 41 41 36 34 43 40 37 49 54 51 46 40 42 44 31 21 20 18 16 19 22 24 32 33 23 21 26 21 23 38 39 33 32 25 18 16 17 19 20 19 18 19 18 8 3 2 359 359 360
95 101 111 121 129 132 135 143 150 160 180 180 164 167 173 163 158 153 149 145 133 121 111 103 93 80 72 64 66 71 62 58 60 53 49 44 39 41 35 28 41 46 40 51 63 60 53 46 44 46 33 14 12 14 13 15 19 22 29 32 23 19 23 17 17 31 38 34 32 24 19 20 20 20 21 22 21 22 20 11 3 2 360 358 357
104 111 122 129 133 136 139 147 156 168 178 166 157 168 172 160 159 158 154 150 136 125 116 105 96 90 84 72 66 70 67 64 62 53 48 45 40 39 33 26 36 47 45 54 66 67 63 54 46 48 44 22 10 11 12 12 15 19 27 33 26 21 25 22 15 18 31 33 22 11 13 19 21 21 22 23 23 21 19 13 5 2 359 356 353
121 128 137 136 138 142 144 152 163 169 170 160 159 171 171 161 165 165 155 144 130 124 122 112 102 97 93 82 72 69 66 66 64 57 48 45 42 39 34 32 38 41 41 46 56 70 77 70 55 55 57 33 12 11 13 12 12 17 24 32 30 24 25 25 15 8 14 23 14 1 4 12 18 20 20 21 23 20 16 12 5 359 356 354 351
134 138 141 140 143 148 153 162 168 167 167 163 165 176 175 164 165 166 152 142 134 126 124 121 113 105 98 91 84 75 68 67 67 62 54 48 45 38 33 40 47 45 42 34 27 44 68 70 64 65 63 38 18 17 17 14 14 20 25 30 31 26 21 20 13 4 4 12 10 360 358 6 15 19 17 17 21 21 16 12 6 360 357 355 351
147 145 146 148 154 160 164 168 168 167 168 166 167 176 176 163 164 166 152 144 143 134 128 126 119 112 103 95 92 84 76 72 67 65 63 52 47 40 31 38 52 52 50 38 25 30 42 39 43 56 66 60 42 31 20 13 15 21 25 29 31 27 21 17 11 4 3 5 2 354 353 3 13 17 16 13 16 17 15 12 9 5 2 360 358
144 146 153 159 166 169 170 169 168 168 170 170 170 174 172 166 167 165 152 147 147 142 139 135 124 116 108 101 100 95 89 85 74 69 69 55 49 50 37 32 35 38 50 49 34 29 31 30 37 51 67 77 58 42 23 11 12 16 21 26 30 28 25 21 14 7 4 360 352 349 354 2 6 10 13 13 12 12 10 7 6 7 8 6 4
143 152 164 170 171 173 173 172 169 170 172 173 173 173 171 170 170 163 154 152 152 150 147 140 130 124 121 118 115 111 110 107 93 81 76 59 43 51 46 29 22 21 31 47 41 30 29 30 37 50 60 61 52 43 24 9 8 12 16 21 26 26 26 28 25 10 357 348 346 348 355 359 360 2 4 6 10 10 6 4 4 5 8 8 6
154 162 171 175 175 174 174 174 170 172 176 176 176 176 172 170 170 162 156 156 158 156 150 143 141 141 141 142 140 136 135 126 112 106 97 73 44 40 47 34 26 25 24 32 37 31 29 27 27 39 46 36 39 41 18 4 3 7 11 15 20 22 23 30 35 15 350 345 349 352 355 357 1 5 4 4 9 8 4 3 3 3 5 8 7
166 170 176 181 179 173 172 175 173 174 179 178 177 178 174 172 171 164 160 164 163 157 155 155 155 155 155 158 155 145 146 150 141 123 99 86 64 52 47 35 32 32 24 26 32 28 27 25 18 25 31 25 29 28 3 354 356 2 7 11 14 19 21 26 29 11 354 357 2 359 360 5 8 10 11 12 13 9 5 5 5 5 7 8 6
173 175 181 184 182 174 174 176 174 175 181 181 179 180 177 174 172 167 167 171 166 162 166 167 164 165 166 166 164 160 158 159 164 156 127 106 90 77 65 45 37 35 25 24 31 29 26 20 12 18 23 17 19 9 349 347 353 359 5 8 10 15 20 23 22 12 7 17 20 11 14 18 14 12 19 21 17 11 9 8 7 7 9 9 7
177 178 182 185 185 179 177 179 178 178 183 184 181 182 180 177 175 173 174 175 170 169 173 172 169 172 176 177 181 180 171 163 169 172 140 109 89 90 86 64 46 43 32 25 29 32 29 15 6 14 16 9 10 359 344 345 353 357 1 5 8 12 17 20 19 16 15 22 21 18 24 24 16 16 23 22 17 13 11 11 9 9 9 8 7
182 179 181 187 191 186 181 183 182 180 184 186 184 183 182 179 178 178 178 178 175 174 176 176 175 177 180 182 187 190 186 174 156 138 122 106 92 91 92 75 56 56 49 35 35 38 32 16 8 12 12 7 4 348 339 344 350 352 354 1 7 14 18 20 20 15 13 19 20 17 22 23 18 19 21 18 16 13 12 12 11 10 9 7 5
185 180 181 189 196 191 185 186 185 183 185 187 186 185 184 182 181 181 180 180 177 177 180 180 180 185 187 182 179 186 195 183 155 148 150 138 125 116 103 88 77 69 60 56 61 58 48 45 36 16 2 358 349 336 336 344 347 346 350 358 9 18 19 20 20 14 10 15 17 14 17 19 17 17 18 15 12 10 10 10 9 9 9 6 5
190 182 183 191 198 195 189 188 187 186 186 187 187 186 184 183 184 183 184 181 177 179 185 184 184 190 191 185 182 188 197 192 171 168 171 161 151 155 155 126 102 91 81 77 77 70 56 55 54 6 345 348 343 336 339 346 349 349 354 2 16 28 26 21 19 15 12 11 9 10 17 19 15 15 16 12 8 7 8 8 6 7 8 5 5
195 185 181 189 198 198 193 190 187 187 187 188 188 186 185 185 185 184 185 184 179 180 187 188 190 193 191 189 192 194 194 198 189 178 176 172 166 170 178 177 156 131 114 100 86 73 58 47 37 12 356 355 351 345 345 350 354 357 3 12 25 37 37 30 20 12 11 11 8 8 14 16 12 12 14 10 6 6 6 4 3 5 5 3 4